IRS-P5 (CARTOSAT-1)

Last updated on Mon Sep 15 2025 00:02:30 GMT+0000 (Coordinated Universal Time)

1 28649U 05017A 25257.03953776 .00001230 00000+0 13312-3 0 9991 2 28649 97.5614 287.3913 0000615 115.9750 244.1532 14.89944445102686
UTC large
Height (km)
Speed (km/s)
/
Latitude / Longitude
Inclination (degrees)
Orbital Period (minutes)
Azimuth
Elevation
Range (km)
Doppler Factor

Next 0 passes for location: London (51.5072 / 0.1276)

Sorry there are no passes over London.